Temp
2 1 0 1 0 -0 -1 -1 -2 -2 -3 -3 -3 -2 -3 -3 -3 -3 -4 -4 -4 -5 -6 -6 -5 -7 -8 -8 -8 -8 -8 -8 -8 -6 -6 -7 -6 -4 -2 -1 -2 -1 0
1 0 0 -0 -1 -2 -2 -3 -3 -3 -3 -3 -3 -3 -3 -3 -3 -3 -4 -4 -4 -4 -5 -5 -4 -5 -8 -9 -9 -8 -8 -9 -8 -7 -6 -7 -7 -5 -4 -3 -3 -2 -2
0 -0 -1 -1 -2 -2 -3 -3 -4 -4 -4 -4 -4 -4 -4 -4 -4 -4 -5 -5 -5 -5 -5 -5 -6 -6 -7 -8 -8 -8 -9 -8 -8 -7 -7 -7 -8 -7 -4 -4 -5 -4 -3
-1 -1 -2 -2 -3 -3 -4 -4 -4 -4 -4 -4 -4 -4 -4 -5 -5 -6 -6 -6 -7 -7 -8 -9 -8 -7 -7 -6 -8 -8 -6 -9 -9 -8 -8 -8 -8 -7 -7 -7 -5 -5 -4
-1 -2 -3 -3 -4 -4 -5 -5 -5 -5 -5 -5 -5 -5 -5 -6 -6 -7 -7 -7 -7 -8 -8 -9 -9 -8 -8 -8 -8 -8 -7 -9 -10 -9 -9 -10 -9 -6 -8 -8 -7 -6 -5
-3 -4 -3 -4 -4 -5 -5 -5 -6 -6 -6 -6 -6 -6 -7 -7 -7 -7 -7 -8 -8 -9 -10 -9 -8 -8 -8 -8 -8 -8 -8 -8 -10 -12 -11 -12 -12 -8 -7 -9 -8 -7 -7
-5 -5 -6 -6 -7 -7 -7 -7 -7 -7 -7 -6 -7 -9 -10 -10 -8 -8 -7 -8 -9 -10 -11 -11 -11 -9 -8 -9 -9 -9 -8 -8 -9 -10 -13 -12 -12 -9 -8 -7 -9 -9 -8
-5 -5 -6 -7 -7 -8 -8 -8 -9 -9 -9 -9 -8 -10 -10 -9 -7 -8 -10 -11 -11 -11 -11 -12 -12 -11 -9 -9 -12 -10 -9 -9 -10 -10 -11 -11 -11 -9 -8 -10 -9 -8 -8
-4 -5 -6 -6 -7 -7 -8 -8 -9 -9 -9 -8 -8 -9 -11 -11 -8 -8 -11 -11 -11 -12 -12 -11 -12 -12 -10 -10 -11 -10 -10 -10 -10 -11 -11 -11 -10 -10 -8 -9 -8 -11 -10
-5 -5 -6 -6 -7 -7 -8 -9 -9 -9 -8 -8 -8 -8 -8 -11 -9 -8 -10 -11 -12 -12 -12 -13 -11 -11 -10 -10 -10 -10 -10 -11 -10 -10 -10 -10 -10 -10 -10 -10 -11 -13 -13
-5 -5 -5 -6 -6 -7 -9 -9 -10 -10 -9 -8 -8 -8 -9 -10 -10 -8 -8 -10 -11 -12 -13 -13 -13 -11 -11 -11 -11 -12 -12 -12 -13 -14 -14 -14 -13 -12 -12 -13 -13 -12 -12
-5 -6 -6 -7 -7 -9 -9 -9 -10 -9 -8 -8 -10 -11 -12 -10 -10 -9 -8 -8 -9 -12 -12 -13 -11 -11 -12 -12 -12 -12 -12 -14 -15 -15 -15 -15 -16 -16 -15 -16 -14 -15 -14
-5 -6 -7 -7 -8 -9 -9 -9 -10 -10 -10 -11 -11 -11 -12 -13 -13 -10 -9 -9 -9 -10 -10 -11 -11 -12 -13 -13 -12 -13 -16 -16 -16 -16 -16 -16 -16 -17 -16 -16 -16 -16 -16
-5 -6 -7 -8 -8 -9 -9 -10 -10 -10 -10 -11 -11 -11 -12 -12 -13 -13 -13 -13 -10 -10 -11 -11 -12 -13 -13 -15 -16 -17 -17 -17 -17 -17 -17 -17 -16 -17 -17 -17 -16 -16 -15
-5 -6 -7 -8 -8 -9 -9 -9 -10 -10 -10 -11 -11 -12 -12 -12 -13 -12 -12 -11 -11 -11 -11 -12 -14 -16 -16 -17 -17 -17 -17 -17 -17 -17 -17 -17 -17 -17 -17 -17 -17 -16 -16
-6 -6 -7 -8 -8 -9 -9 -10 -10 -9 -9 -10 -10 -12 -12 -12 -12 -12 -11 -11 -11 -12 -13 -15 -16 -17 -17 -17 -17 -17 -18 -18 -18 -18 -18 -18 -17 -17 -17 -17 -17 -17 -17
-6 -7 -8 -8 -9 -9 -10 -10 -10 -10 -11 -11 -12 -12 -14 -12 -12 -12 -12 -12 -12 -12 -15 -17 -17 -17 -18 -18 -18 -18 -18 -19 -19 -19 -19 -19 -18 -18 -18 -18 -18 -18 -17
-6 -7 -7 -8 -9 -9 -10 -11 -11 -12 -13 -14 -13 -14 -13 -12 -13 -13 -13 -13 -15 -14 -15 -17 -18 -18 -19 -19 -19 -19 -19 -19 -19 -19 -19 -20 -20 -19 -19 -19 -19 -19 -18
-5 -5 -6 -6 -7 -8 -9 -11 -11 -12 -12 -13 -14 -14 -14 -13 -13 -14 -14 -15 -16 -17 -16 -18 -18 -19 -19 -20 -20 -20 -20 -21 -21 -20 -20 -20 -20 -19 -20 -19 -19 -20 -19
-5 -5 -6 -7 -7 -8 -10 -11 -11 -11 -12 -13 -14 -14 -15 -14 -16 -17 -15 -15 -16 -16 -17 -18 -18 -19 -20 -21 -21 -21 -20 -20 -20 -20 -21 -21 -21 -20 -20 -20 -20 -20 -20
-5 -5 -6 -7 -7 -8 -9 -11 -11 -11 -12 -13 -13 -14 -14 -16 -16 -17 -18 -17 -17 -17 -17 -17 -19 -19 -21 -21 -21 -21 -22 -21 -21 -21 -21 -21 -21 -21 -21 -21 -20 -20 -21
-5 -6 -6 -7 -8 -8 -9 -11 -11 -12 -12 -13 -14 -14 -14 -15 -17 -17 -18 -18 -16 -17 -17 -17 -18 -19 -20 -21 -22 -22 -22 -22 -22 -22 -22 -22 -21 -21 -21 -21 -21 -21 -21
-6 -6 -6 -8 -8 -8 -9 -11 -12 -12 -12 -13 -14 -15 -14 -16 -17 -18 -19 -17 -17 -17 -17 -18 -18 -18 -19 -19 -20 -22 -23 -23 -23 -23 -23 -22 -22 -22 -22 -21 -22 -22 -22
-6 -6 -7 -7 -8 -8 -9 -11 -12 -13 -13 -14 -15 -16 -17 -17 -18 -19 -18 -17 -17 -18 -18 -18 -18 -19 -19 -20 -21 -23 -24 -24 -24 -23 -22 -23 -22 -22 -22 -22 -22 -23 -23
-6 -6 -7 -7 -8 -9 -10 -12 -13 -14 -14 -15 -15 -16 -17 -18 -19 -18 -17 -17 -18 -18 -18 -19 -19 -19 -20 -20 -21 -21 -22 -22 -22 -22 -23 -24 -24 -23 -24 -23 -24 -23 -23
-6 -7 -7 -8 -9 -10 -10 -13 -14 -14 -15 -15 -16 -17 -17 -18 -18 -18 -17 -18 -18 -18 -19 -19 -19 -20 -20 -21 -21 -21 -22 -22 -22 -23 -23 -24 -24 -23 -24 -24 -24 -24 -24
Height
1493 1495 1493 1495 1496 1497 1498 1497 1496 1495 1495 1494 1492 1490 1488 1487 1485 1482 1479 1477 1474 1471 1468 1465 1461 1458 1456 1453 1449 1444 1439 1435 1430 1422 1416 1408 1401 1395 1391 1387 1384 1381 1377
1491 1491 1491 1494 1494 1494 1496 1496 1495 1495 1494 1493 1491 1490 1488 1487 1485 1482 1479 1477 1474 1471 1468 1465 1462 1458 1455 1453 1449 1445 1440 1434 1429 1422 1417 1410 1403 1398 1393 1389 1385 1381 1377
1487 1488 1490 1490 1492 1493 1494 1495 1494 1494 1493 1492 1491 1490 1488 1487 1485 1483 1480 1478 1475 1473 1470 1466 1463 1460 1456 1452 1448 1443 1439 1436 1431 1426 1420 1414 1406 1399 1395 1392 1388 1383 1378
1484 1484 1488 1489 1490 1491 1493 1493 1493 1493 1492 1491 1490 1489 1488 1487 1485 1483 1481 1478 1476 1473 1470 1467 1464 1461 1457 1453 1449 1444 1439 1435 1431 1428 1422 1415 1409 1402 1398 1394 1390 1386 1381
1480 1482 1484 1487 1488 1489 1491 1492 1492 1492 1491 1491 1490 1489 1488 1487 1485 1483 1481 1479 1477 1474 1471 1468 1465 1461 1458 1454 1450 1446 1441 1436 1432 1428 1423 1418 1410 1403 1398 1396 1394 1390 1385
1476 1479 1481 1484 1486 1487 1489 1491 1491 1491 1491 1491 1490 1489 1488 1487 1486 1484 1482 1480 1477 1475 1472 1469 1466 1463 1460 1456 1452 1448 1443 1438 1433 1431 1428 1422 1416 1410 1406 1401 1398 1392 1389
1473 1476 1479 1482 1484 1486 1488 1490 1490 1490 1490 1490 1490 1489 1489 1488 1486 1484 1482 1481 1479 1476 1474 1471 1468 1464 1461 1457 1453 1450 1445 1441 1436 1433 1429 1424 1419 1413 1409 1405 1402 1399 1395
1470 1474 1477 1480 1482 1485 1488 1489 1489 1490 1490 1490 1490 1490 1491 1487 1486 1484 1482 1484 1482 1478 1475 1473 1470 1466 1462 1458 1457 1452 1448 1443 1438 1434 1431 1427 1423 1418 1413 1409 1405 1402 1399
1466 1470 1474 1477 1480 1483 1486 1487 1488 1489 1488 1488 1489 1488 1489 1488 1485 1484 1484 1485 1482 1478 1476 1472 1471 1468 1463 1460 1458 1454 1450 1446 1442 1438 1434 1430 1426 1421 1416 1411 1405 1404 1401
1462 1466 1470 1474 1476 1480 1482 1484 1486 1486 1486 1487 1487 1487 1486 1488 1484 1483 1482 1484 1480 1479 1476 1474 1470 1467 1464 1460 1458 1454 1451 1447 1443 1439 1436 1432 1428 1423 1418 1413 1409 1406 1402
1459 1462 1466 1469 1472 1476 1479 1482 1483 1484 1484 1485 1485 1485 1485 1485 1483 1482 1481 1480 1479 1477 1476 1474 1470 1467 1464 1461 1457 1454 1451 1448 1445 1442 1438 1434 1430 1425 1421 1417 1413 1409 1405
1456 1460 1462 1466 1469 1473 1475 1477 1479 1481 1482 1484 1484 1485 1484 1483 1482 1480 1479 1478 1476 1475 1474 1472 1469 1467 1464 1461 1458 1455 1452 1449 1447 1444 1441 1437 1432 1428 1424 1421 1417 1414 1410
1453 1457 1460 1464 1467 1471 1473 1474 1477 1479 1480 1482 1484 1485 1484 1484 1482 1479 1478 1477 1475 1474 1472 1470 1468 1466 1464 1461 1458 1455 1453 1450 1449 1446 1443 1440 1436 1432 1429 1425 1422 1418 1415
1450 1454 1458 1461 1465 1468 1471 1473 1475 1477 1479 1481 1482 1483 1483 1483 1482 1481 1478 1476 1474 1472 1470 1469 1467 1465 1463 1461 1459 1457 1455 1452 1451 1448 1445 1443 1439 1435 1431 1427 1425 1422 1420
1447 1451 1455 1459 1461 1465 1468 1471 1473 1475 1477 1479 1479 1481 1482 1482 1480 1478 1477 1475 1473 1471 1469 1468 1467 1465 1464 1462 1460 1458 1456 1455 1452 1450 1447 1444 1441 1437 1434 1430 1427 1425 1422
1443 1447 1451 1454 1458 1462 1464 1466 1468 1470 1473 1474 1475 1477 1477 1477 1477 1475 1474 1473 1471 1469 1468 1467 1466 1465 1464 1462 1460 1459 1457 1455 1453 1451 1448 1445 1443 1440 1436 1433 1429 1427 1424
1439 1443 1446 1449 1453 1457 1460 1463 1465 1468 1470 1471 1473 1474 1475 1474 1474 1474 1473 1471 1469 1468 1468 1466 1465 1464 1463 1462 1460 1458 1457 1455 1453 1451 1449 1446 1444 1442 1439 1435 1432 1429 1426
1434 1438 1441 1445 1449 1453 1457 1460 1463 1465 1467 1468 1471 1471 1471 1472 1472 1472 1471 1469 1468 1467 1466 1465 1464 1463 1462 1460 1458 1457 1456 1455 1453 1452 1449 1447 1445 1443 1440 1438 1435 1431 1429
1429 1434 1438 1442 1446 1450 1453 1458 1461 1464 1466 1468 1468 1470 1469 1468 1469 1469 1468 1468 1467 1465 1464 1463 1462 1461 1460 1459 1457 1455 1454 1453 1452 1451 1450 1447 1446 1445 1442 1440 1437 1434 1431
1426 1431 1436 1440 1443 1446 1450 1454 1458 1461 1463 1465 1466 1468 1467 1466 1467 1466 1465 1465 1464 1463 1461 1461 1459 1458 1457 1457 1456 1454 1455 1454 1453 1452 1450 1448 1446 1445 1444 1441 1438 1436 1433
1422 1428 1433 1437 1440 1443 1447 1451 1455 1457 1459 1461 1463 1463 1463 1465 1467 1465 1464 1462 1461 1460 1459 1458 1457 1456 1455 1455 1454 1454 1453 1453 1452 1451 1450 1449 1447 1446 1444 1442 1440 1437 1434
1419 1424 1429 1433 1436 1440 1443 1447 1450 1453 1456 1457 1458 1457 1459 1461 1462 1462 1461 1458 1457 1457 1456 1455 1454 1453 1453 1452 1451 1451 1451 1451 1451 1450 1449 1448 1448 1446 1445 1443 1440 1438 1435
1415 1420 1425 1429 1432 1436 1439 1443 1446 1449 1452 1453 1454 1453 1455 1457 1458 1458 1456 1454 1454 1453 1453 1452 1451 1450 1450 1449 1448 1448 1449 1449 1448 1447 1447 1447 1447 1445 1445 1443 1441 1438 1435
1412 1416 1421 1424 1428 1431 1435 1437 1441 1444 1447 1449 1450 1451 1452 1452 1453 1452 1451 1451 1450 1450 1450 1449 1448 1448 1447 1446 1446 1446 1446 1445 1446 1446 1444 1445 1446 1444 1443 1442 1440 1438 1435
1408 1412 1416 1420 1423 1427 1430 1434 1437 1440 1442 1444 1446 1447 1447 1447 1447 1447 1447 1447 1447 1447 1446 1446 1445 1445 1444 1444 1443 1443 1442 1443 1443 1443 1443 1443 1443 1442 1441 1441 1438 1437 1435
1405 1409 1413 1416 1419 1423 1426 1429 1432 1435 1437 1439 1441 1442 1442 1443 1443 1443 1442 1443 1443 1443 1443 1442 1442 1442 1441 1441 1440 1440 1440 1440 1441 1441 1440 1442 1442 1442 1440 1439 1437 1436 1434
Wind_Speed
12 9 7 7 5 3 2 1 0 1 2 4 5 7 8 9 10 11 12 13 13 13 14 15 16 16 15 16 16 17 16 15 18 22 21 23 25 21 15 13 12 15 15
13 12 9 7 6 4 3 2 2 2 2 3 5 6 7 9 10 11 13 14 14 15 15 16 18 17 17 16 16 17 18 17 19 22 23 24 24 24 17 15 16 12 12
16 12 11 9 8 5 4 4 3 3 3 4 5 5 7 9 11 12 14 14 15 15 15 16 18 18 18 18 19 19 19 17 18 19 21 22 22 22 17 13 18 16 11
17 15 12 10 8 6 5 4 4 4 4 5 6 7 7 9 11 12 13 14 14 15 16 16 17 19 20 21 19 21 22 19 19 18 20 22 25 25 19 21 17 18 16
19 17 14 12 9 7 6 5 4 5 5 6 7 7 7 8 11 12 13 14 14 15 16 17 18 19 20 21 21 22 23 21 20 20 21 23 27 30 28 25 20 7 16
21 17 16 14 11 9 7 6 5 5 5 5 5 7 7 8 9 11 12 13 14 15 16 16 17 18 18 19 20 21 22 23 21 20 20 22 26 27 22 21 19 17 10
21 19 17 15 13 11 9 8 6 5 5 4 5 7 7 6 8 9 10 12 13 14 16 16 16 18 18 19 20 21 22 22 22 20 20 22 24 27 22 17 14 14 16
21 19 18 17 15 13 12 10 8 7 6 5 4 5 4 5 7 6 13 7 9 11 13 14 15 16 17 17 16 18 20 21 23 21 19 20 21 22 20 16 13 7 10
23 22 20 17 16 15 13 11 9 7 6 5 4 4 4 4 7 6 9 4 6 9 10 13 13 15 16 17 15 15 16 17 17 17 16 16 17 18 18 17 17 15 7
23 24 21 18 17 16 14 13 10 8 6 5 5 4 4 4 6 7 7 3 5 6 9 10 14 14 17 17 16 16 16 16 16 16 16 16 17 18 20 22 21 19 17
22 22 21 18 17 17 15 13 12 9 8 6 6 5 3 2 3 6 7 4 5 6 7 8 11 14 16 17 16 16 16 15 15 15 15 17 18 20 21 21 21 22 20
21 21 19 18 17 16 16 14 12 11 8 8 6 5 2 0 1 5 6 7 8 6 7 8 11 13 14 15 14 14 13 13 13 14 15 17 18 19 19 18 18 17 20
22 20 18 18 17 17 16 15 12 11 9 8 7 6 4 2 2 4 6 7 8 8 9 10 11 12 12 13 14 12 13 13 14 14 15 16 16 16 16 15 14 13 15
21 20 19 19 18 17 15 13 12 11 10 9 8 6 5 3 0 2 5 7 8 9 9 9 10 12 12 11 11 11 12 13 13 13 14 14 15 15 16 17 15 15 13
21 20 20 19 19 17 15 13 12 11 10 9 9 7 6 4 3 3 3 6 7 8 7 8 7 7 7 9 9 10 10 11 12 13 13 14 15 16 16 16 16 15 15
22 22 22 20 19 17 16 16 19 15 12 12 10 8 10 9 3 5 8 8 8 8 6 5 6 6 7 8 8 8 9 10 11 11 12 13 14 15 15 16 16 16 16
22 22 22 21 20 19 17 15 16 16 13 11 9 8 7 4 4 6 7 9 8 8 5 5 5 5 6 6 7 7 7 9 10 10 11 12 13 13 15 15 16 16 16
25 24 23 23 22 20 18 16 14 13 12 10 9 8 8 7 6 7 9 8 7 7 4 4 4 4 4 5 6 6 6 7 8 9 10 11 12 12 14 14 15 16 16
26 24 23 23 23 21 18 16 14 13 13 12 12 13 13 12 8 9 9 4 4 4 4 4 4 4 4 5 6 6 6 6 7 8 8 9 11 11 12 13 14 16 15
25 22 23 23 23 21 18 16 15 15 16 14 12 11 12 10 6 7 8 7 5 5 4 4 4 4 4 4 5 5 4 5 6 6 7 8 9 10 11 12 14 15 16
27 26 24 23 22 21 20 17 15 15 15 14 13 16 14 8 7 6 5 6 5 6 6 5 5 5 5 4 4 4 4 3 4 5 5 5 7 8 9 11 12 13 15
27 27 27 25 22 21 18 16 15 15 14 13 14 18 13 11 8 7 6 7 8 8 7 7 6 6 6 5 5 3 3 3 3 3 3 5 5 7 8 10 11 12 14
27 27 27 25 22 21 19 16 15 14 14 13 13 12 13 10 8 7 7 9 9 8 8 8 7 7 6 5 5 3 2 3 3 3 2 3 5 5 7 8 10 12 13
27 27 27 25 24 21 19 18 15 15 14 13 13 11 10 10 9 10 10 10 9 9 8 8 7 7 6 5 4 4 4 5 3 3 3 3 4 6 6 7 9 11 12
28 27 26 25 23 21 20 17 15 15 14 13 12 12 11 10 10 11 11 10 9 9 8 8 7 7 7 6 5 5 6 5 5 5 4 4 5 5 6 6 8 9 11
26 25 24 23 22 21 19 17 15 14 14 13 13 12 11 11 11 11 11 10 10 9 8 8 8 7 7 6 6 6 6 7 7 6 6 5 6 6 6 7 9 8 10
Wind_Direction
208 205 208 216 221 218 218 217 121 49 42 34 32 31 30 28 32 32 31 28 28 24 20 19 19 15 7 358 355 351 348 347 333 340 342 344 351 358 354 346 333 325 324
205 201 202 204 199 186 195 183 148 110 79 60 47 43 41 38 39 39 38 32 30 27 26 25 23 21 17 5 3 358 351 353 344 346 351 353 359 3 8 7 360 344 343
204 202 199 194 189 182 183 177 157 131 104 81 66 59 55 48 44 45 42 39 36 34 31 31 27 24 19 14 11 8 1 359 352 351 353 359 2 5 11 18 11 11 360
201 199 199 192 183 175 172 161 143 122 98 83 70 61 60 55 50 49 47 45 37 34 34 31 28 26 24 20 13 11 12 9 1 1 359 2 6 8 16 4 11 9 13
199 196 195 192 185 176 167 153 143 124 108 89 74 66 65 59 53 47 45 42 39 36 34 35 29 27 24 21 18 14 15 16 11 9 5 5 8 10 11 14 2 17 15
192 187 195 194 187 179 172 161 145 135 121 104 86 73 66 55 53 48 44 40 37 36 33 29 27 26 25 24 20 17 17 19 19 17 9 7 5 8 8 14 11 16 6
185 182 186 186 179 177 170 166 153 143 132 113 89 70 60 40 47 46 46 36 39 39 30 29 23 23 23 24 18 17 17 21 25 19 15 10 6 7 4 5 13 19 26
183 184 185 181 178 177 173 170 164 157 145 136 123 106 91 26 44 50 67 41 41 37 36 32 24 19 26 28 18 16 16 15 18 20 17 13 11 9 10 5 355 27 353
184 186 186 181 180 180 179 175 168 160 156 162 155 140 106 37 44 57 81 41 32 35 33 27 31 19 24 25 23 21 20 19 18 20 18 13 11 13 14 19 23 17 359
186 189 185 180 180 182 181 179 172 176 171 174 174 164 133 85 4 58 85 47 29 32 21 26 5 18 16 19 18 19 19 17 16 14 14 16 17 18 24 27 27 25 16
183 186 189 190 194 196 186 180 176 175 180 187 179 163 155 143 2 26 39 35 30 25 20 15 2 11 10 12 11 15 16 14 12 13 13 14 17 19 21 23 25 28 28
178 180 185 188 188 184 187 187 182 185 189 186 178 154 159 31 11 13 26 20 17 21 12 359 357 6 5 4 6 8 7 17 17 16 15 14 13 14 15 15 17 21 22
176 176 177 177 182 179 182 186 180 184 187 184 181 174 174 161 324 356 12 12 9 3 355 353 358 1 359 358 359 4 16 19 19 18 15 11 9 6 8 14 15 16 14
175 177 177 178 179 179 180 183 184 186 187 189 185 180 180 180 233 341 358 0 3 359 353 351 351 356 358 3 6 14 18 18 19 15 12 6 5 9 9 11 12 13 10
178 179 179 181 179 179 180 182 187 187 190 190 186 182 179 185 224 309 342 350 351 349 349 356 356 357 1 5 9 13 13 17 15 13 11 9 7 8 10 10 13 12 13
179 181 182 182 178 180 179 185 193 201 207 208 202 193 196 216 301 338 332 351 343 350 1 360 357 4 5 4 6 10 8 12 13 11 10 13 10 7 11 10 13 16 13
184 182 184 182 182 182 182 182 190 200 200 206 212 219 201 253 325 329 335 336 347 354 358 356 359 4 3 2 3 6 6 3 10 8 9 10 14 11 14 13 13 14 11
189 188 193 190 189 188 186 183 184 185 187 199 202 216 250 285 312 322 336 338 347 348 342 348 356 356 1 359 358 1 1 2 4 8 6 9 16 11 14 16 11 12 12
199 199 201 201 201 199 193 185 188 191 191 195 196 206 245 274 296 309 325 323 308 322 330 333 337 341 348 354 351 357 1 360 7 8 5 9 14 16 13 14 14 9 14
199 201 202 203 202 199 194 191 193 198 201 200 201 206 221 261 287 290 305 307 307 304 315 322 319 316 327 338 345 349 354 359 356 4 6 6 17 15 12 13 10 10 8
196 198 203 205 205 206 206 198 199 204 204 206 209 221 235 222 239 245 264 287 287 293 301 301 307 308 315 320 331 331 336 346 350 0 3 6 12 15 13 8 9 8 3
200 203 203 205 206 207 207 201 202 206 206 207 209 234 234 228 228 231 238 267 282 286 291 293 291 290 292 292 299 310 317 335 334 344 347 4 11 357 7 1 4 4 2
204 207 205 205 207 211 212 204 202 203 204 204 208 222 225 216 219 225 235 270 279 282 287 289 287 287 288 292 292 281 278 296 293 300 331 347 349 349 353 353 355 359 357
204 207 208 208 209 212 211 210 202 198 199 200 201 205 207 213 223 238 253 271 275 280 281 279 280 281 284 285 284 281 280 276 267 287 284 304 329 328 336 342 348 347 350
203 206 207 208 211 210 210 204 196 197 198 199 199 203 210 227 234 250 260 268 270 273 274 276 275 275 277 277 272 260 253 240 242 262 283 291 297 324 321 331 335 341 340
201 203 205 207 208 208 206 201 197 200 200 198 204 213 224 232 240 248 259 264 265 265 270 273 272 270 270 270 266 258 243 240 249 264 270 270 278 287 297 311 317 333 327